DW6004 Weather Reports


time (UTC)temp
C
wind
direction
speed
KPH
gust
KPH
rain 1hr
cm
rain 24hr
cm
rain mn
cm
humidity
%
barometer
mb
20260507151503 16 324 9.7 27.4 0.00 0.71 0.38 36 1009.7
20260507151003 15 340 8.0 24.1 0.00 0.71 0.38 40 1009.9
20260507150525 15 352 9.7 24.1 0.00 0.71 0.38 39 1010.0
20260507150003 15 346 11.3 24.1 0.00 0.71 0.38 42 1009.9
20260507145503 15 334 12.9 24.1 0.00 0.71 0.38 40 1010.1
20260507145004 15 305 11.3 24.1 0.00 0.71 0.38 40 1010.1
20260507144504 15 297 11.3 29.0 0.00 0.71 0.38 38 1010.1
20260507144004 15 299 9.7 29.0 0.00 0.71 0.38 44 1009.9
20260507143503 15 301 8.0 22.5 0.00 0.71 0.38 43 1010.1
20260507143003 15 315 9.7 20.9 0.00 0.71 0.38 43 1010.0
20260507142504 15 319 9.7 24.1 0.00 0.71 0.38 43 1010.0
20260507142025 14 304 9.7 33.8 0.00 0.71 0.38 46 1009.9
20260507141503 14 301 9.7 33.8 0.00 0.71 0.38 43 1009.9
20260507141003 14 310 8.0 20.9 0.00 0.71 0.38 49 1009.8
20260507140503 13 286 9.7 20.9 0.00 0.71 0.38 46 1010.0
20260507140024 13 274 8.0 17.7 0.00 0.71 0.38 49 1010.0
20260507135524 13 276 8.0 20.9 0.00 0.71 0.38 47 1010.0
20260507135003 13 279 8.0 20.9 0.00 0.71 0.38 53 1009.9
20260507134504 13 278 8.0 20.9 0.00 0.71 0.38 50 1010.0
20260507134004 13 312 8.0 20.9 0.00 0.71 0.38 51 1009.8
20260507133503 13 322 6.4 20.9 0.00 0.71 0.38 57 1010.0
20260507133004 13 292 6.4 16.1 0.00 0.71 0.38 56 1010.0
20260507132524 13 299 6.4 16.1 0.00 0.71 0.38 56 1010.2
20260507132004 13 319 6.4 16.1 0.00 0.71 0.38 61 1010.2
20260507131503 12 326 4.8 11.3 0.00 0.71 0.38 67 1010.0
20260507131003 12 329 6.4 17.7 0.00 0.71 0.38 66 1010.1
20260507130503 12 323 9.7 22.5 0.00 0.71 0.38 66 1010.0
20260507130004 12 320 9.7 22.5 0.00 0.71 0.38 65 1010.1
20260507125524 12 324 8.0 20.9 0.00 0.71 0.38 73 1009.9
20260507125003 11 332 6.4 20.9 0.00 0.71 0.38 76 1010.1
20260507124503 11 329 4.8 14.5 0.00 0.71 0.38 80 1010.1
20260507124004 10 321 4.8 14.5 0.00 0.71 0.38 79 1010.1
20260507123503 10 319 6.4 17.7 0.00 0.71 0.38 81 1010.0
20260507123004 10 313 6.4 17.7 0.00 0.71 0.38 82 1010.0
20260507122503 10 306 3.2 12.9 0.00 0.71 0.38 82 1009.9
20260507122004 10 309 3.2 11.3 0.00 0.71 0.38 83 1010.2
20260507121503 10 317 4.8 14.5 0.00 0.71 0.38 83 1010.1
20260507121004 10 308 6.4 16.1 0.00 0.71 0.38 84 1010.1
20260507120503 10 293 4.8 16.1 0.00 0.71 0.38 84 1009.9
20260507120005 10 281 4.8 14.5 0.00 0.71 0.38 84 1010.1
20260507115504 9 296 4.8 14.5 0.00 0.71 0.38 85 1010.1
20260507115003 9 316 3.2 9.7 0.00 0.71 0.38 86 1010.2
20260507114503 9 305 3.2 12.9 0.00 0.71 0.38 86 1009.8
20260507114003 9 297 3.2 12.9 0.00 0.71 0.38 86 1009.9
20260507113504 9 286 3.2 11.3 0.00 0.71 0.38 86 1009.9
20260507113004 9 281 3.2 11.3 0.00 0.71 0.38 86 1009.6
20260507112503 9 292 1.6 6.4 0.00 0.71 0.38 86 1009.6
20260507112003 9 293 1.6 11.3 0.00 0.71 0.38 86 1009.7
20260507111504 9 288 3.2 11.3 0.00 0.71 0.38 86 1009.4
20260507111004 9 295 3.2 6.4 0.00 0.71 0.38 87 1009.3
20260507110503 9 292 3.2 9.7 0.00 0.71 0.38 87 1009.4
20260507110003 9 281 1.6 9.7 0.00 0.71 0.38 87 1009.4
20260507105503 9 281 1.6 9.7 0.00 0.71 0.38 87 1009.3
20260507105004 9 300 1.6 6.4 0.00 0.71 0.38 87 1009.2
20260507104503 9 301 1.6 11.3 0.00 0.71 0.38 87 1009.2
20260507104004 9 300 3.2 11.3 0.00 0.71 0.38 87 1009.1
20260507103503 9 297 3.2 9.7 0.00 0.71 0.38 87 1009.0
20260507103004 9 292 3.2 9.7 0.00 0.71 0.38 87 1008.9
20260507102504 9 292 3.2 9.7 0.00 0.71 0.38 87 1009.2
20260507102003 9 289 3.2 6.4 0.00 0.71 0.38 87 1008.6
20260507101503 9 285 3.2 6.4 0.00 0.71 0.38 87 1009.0
20260507101025 9 280 3.2 9.7 0.00 0.71 0.38 87 1008.8
20260507100524 9 283 3.2 9.7 0.00 0.71 0.38 87 1008.7
20260507100025 9 302 1.6 6.4 0.00 0.71 0.38 87 1008.5
20260507095503 9 303 3.2 11.3 0.00 0.71 0.38 87 1008.4
20260507095003 9 301 3.2 11.3 0.00 0.71 0.38 87 1008.4
20260507094503 9 298 4.8 14.5 0.00 0.71 0.38 87 1008.5
20260507094004 9 299 4.8 14.5 0.00 0.71 0.38 88 1008.4
20260507093503 9 299 4.8 12.9 0.00 0.71 0.38 88 1008.5
20260507093024 9 301 4.8 16.1 0.00 0.71 0.38 88 1008.8
20260507092503 9 301 4.8 16.1 0.00 0.71 0.38 88 1008.5
20260507092025 9 295 4.8 12.9 0.00 0.71 0.38 88 1008.6
20260507091503 9 290 4.8 14.5 0.00 0.71 0.38 88 1008.5
20260507091004 9 296 4.8 14.5 0.03 0.71 0.38 88 1008.6
20260507090503 9 304 4.8 12.9 0.05 0.71 0.38 89 1008.6
20260507090024 9 304 4.8 12.9 0.05 0.71 0.38 89 1008.4
20260507085504 9 301 3.2 11.3 0.05 0.71 0.38 89 1008.7
20260507085004 9 303 3.2 11.3 0.08 0.71 0.38 89 1008.7
20260507084503 9 293 1.6 11.3 0.10 0.71 0.38 89 1008.4
20260507084003 9 287 1.6 9.7 0.10 0.71 0.38 89 1008.4
20260507083503 9 298 1.6 4.8 0.13 0.71 0.38 88 1008.5
20260507083004 9 312 1.6 6.4 0.15 0.71 0.38 88 1008.6
20260507082503 10 303 3.2 9.7 0.15 0.71 0.38 88 1008.6
20260507082004 10 295 3.2 9.7 0.15 0.71 0.38 88 1008.3
20260507081503 10 307 3.2 12.9 0.18 0.71 0.38 88 1008.3
20260507081003 10 291 3.2 12.9 0.15 0.69 0.36 88 1008.3
20260507080524 10 272 3.2 12.9 0.15 0.69 0.36 88 1008.5
20260507080004 10 270 3.2 6.4 0.15 0.66 0.33 88 1009.0
20260507075524 10 279 3.2 12.9 0.15 0.66 0.33 88 1008.7
20260507075024 10 271 4.8 12.9 0.15 0.64 0.33 88 1008.4
20260507074503 10 260 3.2 9.7 0.15 0.64 0.30 88 1008.7
20260507074003 10 266 3.2 9.7 0.15 0.61 0.28 88 1008.7
20260507073524 10 286 3.2 9.7 0.15 0.58 0.25 88 1009.0
20260507073003 10 284 3.2 11.3 0.15 0.56 0.23 88 1008.5
20260507072503 10 282 3.2 12.9 0.18 0.56 0.23 88 1008.8
20260507072025 10 280 3.2 12.9 0.18 0.56 0.23 88 1008.7
20260507071524 10 260 4.8 12.9 0.18 0.53 0.20 87 1008.7
20260507071003 10 270 4.8 12.9 0.18 0.53 0.20 87 1008.8
20260507070503 10 292 3.2 12.9 0.18 0.53 0.20 87 1008.6
20260507070005 10 291 3.2 9.7 0.18 0.51 0.18 86 1008.4
20260507065503 10 293 3.2 11.3 0.18 0.51 0.18 86 1008.7
20260507065003 10 294 4.8 14.5 0.15 0.51 0.18 85 1008.6
20260507064503 11 282 3.2 14.5 0.15 0.48 0.15 85 1008.5
20260507064004 11 270 3.2 11.3 0.10 0.46 0.13 85 1008.7
20260507063525 11 281 3.2 11.3 0.10 0.43 0.10 84 1008.6
20260507063004 11 305 4.8 12.9 0.08 0.41 0.08 83 1008.4
20260507062504 11 304 4.8 14.5 0.05 0.38 0.05 82 1008.2
20260507062003 11 280 6.4 16.1 0.05 0.38 0.05 82 1008.1
20260507061504 11 278 6.4 16.1 0.03 0.36 0.03 82 1008.6
20260507061003 11 305 3.2 9.7 0.03 0.36 0.03 81 1008.2
20260507060503 11 294 3.2 9.7 0.00 0.33 0.00 80 1007.5
20260507060003 11 291 3.2 6.4 0.00 0.33 0.00 80 1008.4
20260507055504 11 301 3.2 12.9 0.00 0.33 0.00 79 1008.0
20260507055004 12 301 4.8 14.5 0.00 0.33 0.00 79 1007.8
20260507054504 12 297 4.8 14.5 0.00 0.33 0.00 79 1008.2
20260507054004 12 327 4.8 14.5 0.00 0.33 0.00 78 1008.0
20260507053524 12 329 6.4 17.7 0.00 0.33 0.00 78 1007.9
20260507053024 12 308 4.8 17.7 0.00 0.33 0.00 77 1007.4
20260507052504 12 302 4.8 11.3 0.00 0.33 0.00 77 1007.6
20260507052004 12 313 4.8 12.9 0.00 0.33 0.00 77 1007.7
20260507051504 12 302 3.2 12.9 0.00 0.33 0.00 76 1007.6
20260507051004 12 281 4.8 9.7 0.00 0.33 0.00 76 1007.6
20260507050504 12 298 4.8 16.1 0.00 0.33 0.00 76 1007.8
20260507050005 12 301 4.8 16.1 0.00 0.33 0.00 76 1008.1
20260507045503 12 295 4.8 14.5 0.00 0.33 0.00 76 1007.9
20260507045003 12 295 4.8 14.5 0.00 0.33 0.00 76 1008.1
20260507044504 12 288 4.8 12.9 0.00 0.33 0.00 76 1007.8
20260507044003 12 288 4.8 12.9 0.00 0.33 0.00 76 1007.6
20260507043504 12 283 4.8 12.9 0.00 0.33 0.00 76 1007.8
20260507043003 13 277 4.8 12.9 0.00 0.33 0.00 76 1007.9
20260507042524 13 276 4.8 12.9 0.00 0.33 0.00 76 1007.9
20260507042003 13 272 4.8 12.9 0.00 0.33 0.00 76 1008.0
20260507041503 13 272 3.2 11.3 0.00 0.33 0.00 76 1008.0
20260507041003 13 272 4.8 11.3 0.00 0.33 0.00 76 1008.1
20260507040504 13 277 4.8 11.3 0.00 0.33 0.00 77 1007.8
20260507040003 13 276 3.2 9.7 0.00 0.33 0.00 77 1008.2
20260507035504 13 278 1.6 6.4 0.00 0.33 0.33 78 1008.0
20260507035024 13 296 1.6 6.4 0.00 0.33 0.33 78 1008.0
20260507034503 13 307 3.2 6.4 0.00 0.33 0.33 78 1007.9
20260507034003 13 326 3.2 9.7 0.00 0.33 0.33 78 1007.8
20260507033503 13 331 4.8 11.3 0.00 0.33 0.33 79 1007.8
20260507033003 13 317 4.8 16.1 0.00 0.33 0.33 78 1007.8
20260507032503 13 301 4.8 16.1 0.00 0.33 0.33 78 1007.9
20260507032025 13 301 3.2 9.7 0.00 0.33 0.33 78 1007.7
20260507031503 13 304 3.2 11.3 0.00 0.33 0.33 79 1007.8
20260507031004 13 299 1.6 11.3 0.00 0.33 0.33 79 1007.7
20260507030525 13 279 3.2 16.1 0.00 0.33 0.33 79 1007.5
20260507030024 13 280 3.2 16.1 0.00 0.33 0.33 78 1007.7
20260507025504 13 291 3.2 11.3 0.00 0.33 0.33 79 1007.6
20260507025003 14 301 6.4 20.9 0.00 0.33 0.33 78 1007.7
20260507024503 14 312 6.4 20.9 0.00 0.33 0.33 78 1007.6
20260507024004 14 303 6.4 17.7 0.00 0.33 0.33 79 1007.7
20260507023504 14 291 4.8 14.5 0.00 0.33 0.33 80 1007.9
20260507023003 14 291 6.4 14.5 0.03 0.33 0.33 82 1007.9
20260507022525 15 303 4.8 14.5 0.08 0.33 0.33 82 1008.0
20260507022004 15 305 3.2 12.9 0.08 0.33 0.33 84 1008.0
20260507021503 15 300 3.2 14.5 0.08 0.33 0.33 84 1007.9
20260507021025 15 314 4.8 14.5 0.08 0.33 0.33 84 1007.8
20260507020504 15 311 6.4 17.7 0.08 0.33 0.33 84 1007.7
20260507020003 15 305 6.4 17.7 0.08 0.33 0.33 84 1007.7
20260507015504 16 307 6.4 16.1 0.08 0.33 0.33 83 1007.7
20260507015003 16 309 6.4 16.1 0.05 0.33 0.33 83 1007.7
20260507014504 16 309 6.4 16.1 0.05 0.33 0.33 83 1007.6
20260507014025 16 307 6.4 30.6 0.05 0.33 0.33 83 1007.3
20260507013504 17 308 8.0 30.6 0.05 0.33 0.33 84 1007.2
20260507013004 17 297 6.4 22.5 0.05 0.30 0.30 84 1007.1
20260507012524 17 268 6.4 24.1 0.00 0.25 0.28 84 1007.1
20260507012025 17 229 6.4 24.1 0.00 0.25 0.25 85 1006.9
20260507011504 17 207 4.8 16.1 0.00 0.25 0.25 85 1006.5
20260507011024 17 203 4.8 12.9 0.00 0.25 0.25 85 1006.3
20260507010503 17 202 4.8 14.5 0.00 0.25 0.25 86 1006.3
20260507010003 17 203 4.8 14.5 0.00 0.25 0.25 85 1006.4
20260507005524 17 206 3.2 9.7 0.00 0.25 0.25 85 1006.3
20260507005003 17 200 3.2 16.1 0.00 0.25 0.25 85 1006.4
20260507004503 17 214 1.6 16.1 0.00 0.25 0.25 85 1006.2
20260507004003 17 221 3.2 6.4 0.00 0.25 0.25 85 1006.2
20260507003504 17 216 3.2 9.7 0.00 0.25 0.25 85 1006.2
20260507003004 17 218 3.2 9.7 0.00 0.25 0.25 85 1006.3
20260507002503 17 215 3.2 6.4 0.00 0.25 0.25 85 1006.0
20260507002025 17 214 3.2 9.7 0.00 0.25 0.25 85 1006.1
20260507001503 17 208 3.2 9.7 0.00 0.25 0.25 84 1006.2
20260507001004 17 209 3.2 9.7 0.00 0.25 0.25 84 1006.1
20260507000505 17 210 3.2 12.9 0.00 0.25 0.25 84 1006.1
20260507000003 17 207 4.8 12.9 0.00 0.25 0.25 84 1006.3
20260506235504 17 209 4.8 12.9 0.00 0.25 0.25 84 1006.3
20260506235025 17 212 4.8 11.3 0.00 0.25 0.25 84 1006.4
20260506234504 17 217 4.8 11.3 0.00 0.25 0.25 84 1006.1
20260506234004 17 214 4.8 11.3 0.00 0.25 0.25 84 1006.0
20260506233503 17 204 4.8 20.9 0.00 0.25 0.25 84 1005.9
20260506233004 17 211 4.8 22.5 0.00 0.25 0.25 84 1005.7
20260506232525 17 222 6.4 22.5 0.00 0.25 0.25 84 1005.9
20260506232004 17 218 6.4 12.9 0.00 0.25 0.25 84 1006.1
20260506231525 17 211 8.0 22.5 0.00 0.25 0.25 84 1006.3
20260506231004 17 210 8.0 22.5 0.00 0.25 0.25 84 1006.1
20260506230503 17 212 8.0 17.7 0.00 0.25 0.25 84 1006.2
20260506230004 17 214 8.0 22.5 0.00 0.25 0.25 84 1006.1
20260506225503 17 219 8.0 22.5 0.00 0.25 0.25 84 1006.1
20260506225024 17 228 6.4 14.5 0.00 0.25 0.25 84 1006.2
20260506224504 17 225 6.4 17.7 0.00 0.25 0.25 84 1005.9
20260506224003 18 220 6.4 17.7 0.00 0.25 0.25 84 1005.8
20260506223525 18 223 8.0 17.7 0.00 0.25 0.25 84 1005.7
20260506223003 18 215 8.0 17.7 0.00 0.25 0.25 84 1005.6
20260506222504 18 213 8.0 22.5 0.00 0.25 0.25 84 1005.8
20260506222003 17 218 8.0 22.5 0.00 0.25 0.25 84 1005.9
20260506221504 18 211 8.0 22.5 0.00 0.25 0.25 85 1005.7
20260506221003 17 213 8.0 17.7 0.00 0.25 0.25 85 1005.7
20260506220503 17 226 9.7 20.9 0.00 0.25 0.25 85 1005.7
20260506220004 17 222 9.7 33.8 0.00 0.25 0.25 85 1005.9
20260506215504 17 215 9.7 33.8 0.00 0.25 0.25 86 1005.5
20260506215004 17 218 9.7 33.8 0.00 0.25 0.25 86 1005.7
20260506214504 17 218 11.3 22.5 0.00 0.25 0.25 86 1005.7
20260506214004 17 219 11.3 22.5 0.00 0.25 0.25 86 1005.5
20260506213525 17 217 9.7 22.5 0.00 0.25 0.25 87 1005.4
20260506213003 17 215 8.0 20.9 0.00 0.25 0.25 87 1005.5
20260506212503 17 207 9.7 25.7 0.00 0.25 0.25 87 1005.3
20260506212025 17 208 9.7 25.7 0.00 0.25 0.25 87 1005.5
20260506211504 17 214 8.0 24.1 0.00 0.25 0.25 88 1005.4
20260506211024 17 214 8.0 17.7 0.00 0.25 0.25 88 1005.3
20260506210524 17 211 8.0 16.1 0.00 0.25 0.25 88 1005.1
20260506210004 17 205 6.4 16.1 0.00 0.25 0.25 88 1005.2
20260506205504 17 219 6.4 27.4 0.00 0.25 0.25 88 1005.3
20260506205003 17 223 8.0 27.4 0.00 0.25 0.25 88 1005.3
20260506204504 17 206 8.0 20.9 0.03 0.25 0.25 88 1005.2
20260506204024 17 200 6.4 17.7 0.03 0.25 0.25 88 1005.2
20260506203504 17 210 6.4 17.7 0.03 0.25 0.25 88 1005.3
20260506203003 17 205 8.0 27.4 0.03 0.25 0.25 87 1005.3
20260506202503 17 202 8.0 27.4 0.05 0.25 0.25 87 1005.1
20260506202004 17 206 6.4 17.7 0.10 0.25 0.25 87 1005.4
20260506201504 17 209 4.8 12.9 0.10 0.25 0.25 87 1005.2
20260506201004 17 211 4.8 16.1 0.13 0.25 0.25 87 1005.3
20260506200503 17 209 4.8 16.1 0.15 0.25 0.25 87 1005.5
20260506200025 17 197 3.2 14.5 0.15 0.25 0.25 86 1005.6
20260506195503 17 194 1.6 9.7 0.15 0.25 0.25 86 1005.8
20260506195003 17 210 1.6 6.4 0.15 0.25 0.25 85 1005.8
20260506194503 17 210 3.2 9.7 0.13 0.23 0.23 85 1005.8
20260506194004 17 214 4.8 9.7 0.15 0.23 0.23 85 1005.8
20260506193504 17 217 4.8 9.7 0.15 0.23 0.23 85 1005.9
20260506193004 17 223 4.8 11.3 0.13 0.23 0.23 85 1006.1
20260506192504 17 230 4.8 17.7 0.10 0.20 0.20 84 1006.0
20260506192025 17 229 6.4 17.7 0.08 0.18 0.18 83 1006.0
20260506191504 17 224 4.8 12.9 0.05 0.15 0.15 83 1006.0
20260506191004 17 222 4.8 12.9 0.05 0.15 0.15 81 1006.1
20260506190504 18 221 4.8 14.5 0.03 0.13 0.13 81 1006.1
20260506190003 18 213 4.8 16.1 0.00 0.10 0.10 81 1006.1
20260506185503 18 213 4.8 16.1 0.00 0.10 0.10 80 1006.1
20260506185003 18 217 4.8 17.7 0.00 0.10 0.10 79 1006.3
20260506184504 18 213 6.4 17.7 0.00 0.10 0.10 79 1005.8
20260506184004 18 204 6.4 20.9 0.00 0.10 0.10 79 1005.9
20260506183524 18 209 8.0 22.5 0.00 0.10 0.10 78 1006.1
20260506183003 18 218 9.7 25.7 0.00 0.10 0.10 78 1006.0
20260506182504 18 213 9.7 25.7 0.03 0.10 0.10 78 1006.1
20260506182003 18 209 6.4 20.9 0.05 0.10 0.10 79 1006.2
20260506181504 18 210 4.8 12.9 0.05 0.10 0.10 80 1006.3
20260506181003 18 201 6.4 17.7 0.05 0.10 0.10 79 1006.5
20260506180503 18 191 8.0 17.7 0.05 0.10 0.10 79 1006.4
20260506180003 18 190 6.4 17.7 0.05 0.10 0.10 80 1006.5
20260506175503 18 204 8.0 22.5 0.05 0.10 0.10 81 1006.8
20260506175003 18 207 8.0 22.5 0.05 0.10 0.10 81 1006.5
20260506174504 18 201 6.4 22.5 0.05 0.10 0.10 81 1006.5
20260506174004 18 208 6.4 22.5 0.05 0.10 0.10 81 1006.5
20260506173503 18 203 4.8 16.1 0.08 0.10 0.10 81 1006.6
20260506173003 18 187 4.8 14.5 0.08 0.10 0.10 80 1006.8
20260506172503 18 192 4.8 20.9 0.05 0.08 0.08 79 1006.3
20260506172004 18 184 6.4 20.9 0.05 0.05 0.05 78 1006.3
20260506171503 18 182 6.4 17.7 0.05 0.05 0.05 78 1006.4
20260506171003 18 192 6.4 17.7 0.05 0.05 0.05 78 1006.4
20260506170503 18 195 6.4 25.7 0.05 0.05 0.05 78 1006.6
20260506170024 18 198 8.0 25.7 0.05 0.05 0.05 77 1006.9
20260506165504 18 210 8.0 24.1 0.05 0.05 0.05 77 1007.0
20260506165003 18 212 6.4 24.1 0.05 0.05 0.05 76 1007.4
20260506164525 18 212 6.4 17.7 0.05 0.05 0.05 75 1007.3
20260506164003 18 216 8.0 25.7 0.05 0.05 0.05 74 1007.0
20260506163504 19 211 9.7 25.7 0.03 0.03 0.03 73 1007.3
20260506163003 19 201 8.0 25.7 0.03 0.03 0.03 72 1007.3
20260506162524 20 201 6.4 22.5 0.00 0.00 0.00 71 1007.3
20260506162003 20 206 9.7 27.4 0.00 0.00 0.00 70 1007.5
20260506161525 20 206 11.3 29.0 0.00 0.00 0.00 69 1007.8
20260506161003 20 201 11.3 41.8 0.00 0.00 0.00 67 1007.7
20260506160503 20 196 12.9 41.8 0.00 0.00 0.00 67 1007.8
20260506160025 20 202 12.9 33.8 0.00 0.00 0.00 67 1008.0
20260506155503 21 218 8.0 29.0 0.00 0.00 0.00 66 1007.9
20260506155003 21 215 6.4 17.7 0.00 0.00 0.00 67 1007.6
20260506154503 21 203 9.7 20.9 0.00 0.00 0.00 67 1007.6
20260506154004 21 202 11.3 33.8 0.00 0.00 0.00 67 1007.5
20260506153524 21 204 11.3 33.8 0.00 0.00 0.00 66 1007.7
20260506153003 21 211 9.7 25.7 0.00 0.00 0.00 65 1007.6
20260506152524 21 215 12.9 33.8 0.00 0.00 0.00 64 1007.7
20260506152003 21 218 12.9 33.8 0.00 0.00 0.00 63 1007.7